Location: D�derode
(51.8092°N, 10.1065°E)
Time: 22:55:37
(UTC+00:00)

Cosmos 1869 Rocket - Pass Details

Date: 22 April 2021
Orbit: 603 x 634 km, 82.5° (Epoch: 14 May)

Event Time Altitude Azimuth Distance (km) Brightness Sun altitude
Rises 23:09:35 0° 352° (N) 2,897 8.3 -25.6°
Reaches altitude 10° 23:11:53 10° 357° (N) 1,982 7.2 -25.6°
Enters shadow 23:15:56 53° 61° (ENE) 754 4.0 -25.7°
